This is the latest recevied weather packets stored in our database for station/object W4ZHA. If no packets are shown the sender has not sent any weather packets the latest 10 day(s).
| Time | Temp. | Humidity | Pressure | Rain* | Wind** | Luminosity | Snow |
|---|---|---|---|---|---|---|---|
| 1777499390 | 27.78° C | 55% | 1009.9 hPa | 0 mm | - | 202 W/m² | - |
| 1777499089 | 27.22° C | 57% | 1009.9 hPa | 0 mm | - | 359 W/m² | - |
| 1777498785 | 27.78° C | 58% | 1009.9 hPa | 0 mm | - | 328 W/m² | - |
| 1777498482 | 28.33° C | 57% | 1009.9 hPa | 0 mm | - | 424 W/m² | - |
| 1777498178 | 27.22° C | 56% | 1009.9 hPa | 0 mm | - | 338 W/m² | - |
| 1777497876 | 27.78° C | 57% | 1009.9 hPa | 0 mm | - | 373 W/m² | - |
| 1777497571 | 27.78° C | 55% | 1009.9 hPa | 0 mm | - | 361 W/m² | - |
| 1777497268 | 27.22° C | 55% | 1009.9 hPa | 0 mm | - | 324 W/m² | - |
| 1777496964 | 27.22° C | 54% | 1009.9 hPa | 0 mm | - | 294 W/m² | - |
| 1777496662 | 27.78° C | 55% | 1009.9 hPa | 0 mm | - | 473 W/m² | - |
| 1777496358 | 27.78° C | 56% | 1009.9 hPa | 0 mm | - | 313 W/m² | - |
| 1777496055 | 27.22° C | 56% | 1009.9 hPa | 0 mm | - | 461 W/m² | - |
| 1777495750 | 26.67° C | 59% | 1010.3 hPa | 0 mm | - | 283 W/m² | - |
| 1777495447 | 27.22° C | 56% | 1010.3 hPa | 0 mm | - | 179 W/m² | - |
| 1777495143 | 28.33° C | 57% | 1009.9 hPa | 0 mm | - | 389 W/m² | - |
| 1777494840 | 28.33° C | 58% | 1009.9 hPa | 0 mm | - | 511 W/m² | - |
| 1777494537 | 27.78° C | 57% | 1009.9 hPa | 0 mm | - | 514 W/m² | - |
| 1777494235 | 27.78° C | 55% | 1010.3 hPa | 0 mm | - | 376 W/m² | - |
| 1777493931 | 27.78° C | 58% | 1010.3 hPa | 0 mm | - | 528 W/m² | - |
| 1777493630 | 27.22° C | 56% | 1010.6 hPa | 0 mm | - | 427 W/m² | - |
| 1777493327 | 26.67° C | 59% | 1010.6 hPa | 0 mm | - | 421 W/m² | - |
| 1777493023 | 26.67° C | 60% | 1011 hPa | 0 mm | - | 159 W/m² | - |
| 1777492720 | 26.67° C | 58% | 1010.6 hPa | 0 mm | - | 131 W/m² | - |
| 1777492419 | 28.33° C | 57% | 1011 hPa | 0 mm | - | 152 W/m² | - |
| 1777492117 | 27.78° C | 58% | 1011 hPa | 0 mm | - | 150 W/m² | - |
* Rain latest hour (hover to see other rain measurements)
** Current wind speed in m/s (hover to see current wind gust speed)